This demonstration page uses our WeatherBlox Daily Observations layout. Learn more.

Left ArrowRight Arrow

Hourly Observations for November 25, 2016

Temp ( °F °C ) Dew Point ( °F °C ) Humidity (%) Winds ( mph kmh ) Pressure ( in mb ) Visibility ( mi km ) Precip ( " mm )
12:53 am 00:53 Clear 53 11.7 23 -5 31 31 NE 15 24 30.21 1023 10 16 0.00 0.00
1:53 am 01:53 Clear 51 10.6 24 -4.4 35 35 NNE 16 26 30.22 1023 10 16 0.00 0.00
2:53 am 02:53 Partly Cloudy 50 10 25 -3.9 38 38 NNE 14 22 30.24 1024 10 16 0.00 0.00
3:53 am 03:53 Mostly Clear 49 9.4 25 -3.9 39 39 NNE 15 24 30.26 1025 10 16 0.00 0.00
4:53 am 04:53 Partly Cloudy 47 8.3 25 -3.9 42 42 NNE 13 20 30.29 1026 10 16 0.00 0.00
5:53 am 05:53 Partly Cloudy 45 7.2 25 -3.9 46 46 NNE 13 20 30.32 1027 10 16 0.00 0.00
6:53 am 06:53 Clear 44 6.7 27 -2.8 51 51 N 6 9 30.37 1029 10 16 0.00 0.00
7:53 am 07:53 Mostly Cloudy 44 6.7 28 -2.2 53 53 N 9 15 30.41 1030 10 16 0.00 0.00
8:53 am 08:53 Mostly Cloudy 48 8.9 29 -1.7 48 48 NNE 9 15 30.45 1031 10 16 0.00 0.00
9:53 am 09:53 Mostly Cloudy 49 9.4 30 -1.1 48 48 NNE 8 13 30.47 1032 10 16 0.00 0.00
10:53 am 10:53 Cloudy 50 10 30 -1 47 47 NE 9 15 30.48 1032 10 16 0.00 0.00
11:53 am 11:53 Cloudy 50 10 31 -0.6 48 48 ENE 6 9 30.44 1031 10 16 0.00 0.00
12:53 pm 12:53 Cloudy 51 10.6 34 1.1 52 52 E 3 6 30.39 1029 10 16 0.00 0.00
1:53 pm 13:53 Partly Cloudy 56 13.3 32 0 40 40 NE 7 11 30.35 1028 10 16 0.00 0.00
2:53 pm 14:53 Cloudy 55 12.8 31 -0.6 40 40 N 6 9 30.33 1027 10 16 0.00 0.00
3:53 pm 15:53 Cloudy 53 11.7 35 1.7 51 51 SSE 8 13 30.33 1027 10 16 0.00 0.00
4:53 pm 16:53 Cloudy with Haze 49 9.4 43 6.1 80 80 SSE 8 13 30.36 1028 3 5 0.00 0.00
5:53 pm 17:53 Cloudy 48 8.9 44 6.7 86 86 Calm 30.37 1029 10 16 0.00 0.00
6:53 pm 18:53 Cloudy with Mist and Fog 46 7.8 45 7.2 96 96 S 6 9 30.40 1029 3 5 0.00 0.00
7:13 pm 19:13 Cloudy with Mist and Fog 46 7.8 45 7.2 96 96 S 5 7 30.45 1031 4 6 0.00 0.00
7:28 pm 19:28 Cloudy 46 8 45 7 93 93 ESE 5 7 30.45 1031 7 11 0.00 0.00
7:43 pm 19:43 Cloudy 46 7.8 45 7.2 96 96 SSW 3 6 30.45 1031 10 16 0.00 0.00
7:53 pm 19:53 Cloudy 46 7.8 45 7.2 96 96 SW 3 6 30.40 1030 10 16 0.00 0.00
8:53 pm 20:53 Cloudy 45 7.2 44 6.7 97 97 S 7 11 30.40 1030 10 16 0.00 0.00
9:53 pm 21:53 Cloudy 45 7.2 44 6.7 97 97 Calm 30.40 1029 10 16 0.00 0.00
10:53 pm 22:53 Cloudy 45 7 45 7 100 100 SW 3 6 30.45 1031 10 16 0.00 0.00
11:53 pm 23:53 Cloudy 46 7.8 44 6.7 93 93 Calm 30.36 1028 10 16 0.00 0.00

Powered by AerisWeather